[[{"header":{"parameterUnit":"m.s-1","parameterCategory":1,"la1":30.2991,"la2":30.254,"lo1":-89.0895,"lo2":-89.0444,"dy":0.0017,"dx":0.0017,"nx":28,"ny":28,"refTime":"2025-08-08T09:00:00:Z","depth":0,"parameterNumber":2,"parameterNumberName":"U-component_of_WINDS"},"data":[0,0,0,0,0,0,0,0,0,0,0,0,0,0,0,0,0,0,0,0,0,0,0,0,0,0,0,0,0,0,0,0,0,0,0,0,0,0,0,0,0,0,0,0,0,0,0,0,0,0,0,0,0,0,0,0,0,0,-3.0593,-3.0593,0,-3.0609,-3.061,-3.061,-3.0451,-3.0446,-3.0442,-3.0438,-3.0462,-3.0466,-3.0471,0,0,0,0,0,0,0,0,0,0,0,0,0,-3.0428,-3.0432,-3.0593,-3.0593,-3.0593,-3.0609,-3.061,-3.061,-3.0452,-3.0446,-3.0441,-3.0436,-3.046,-3.0466,-3.0472,0,0,0,0,0,0,0,0,0,0,0,0,0,-3.0478,-3.0433,-3.0593,-3.0516,-3.0509,-3.0609,-3.061,-3.061,-3.0453,-3.0446,-3.0439,-3.0433,-3.0458,-3.0465,-3.0472,-3.0649,0,0,-3.0494,-3.0497,0,0,0,0,0,0,0,0,-3.0475,-3.0484,-3.0527,-3.0521,-3.0514,-3.0521,-3.056,-3.0623,-3.0454,-3.0475,-3.0438,-3.043,-3.0487,-3.0492,-3.051,-3.065,-3.0651,-3.0495,-3.0499,-3.0502,-3.0504,0,0,0,0,0,0,0,-3.0472,-3.0482,-3.0599,-3.0528,-3.052,-3.0482,-3.0482,-3.0571,-3.0518,-3.0472,-3.0461,-3.0464,-3.0483,-3.0503,-3.0509,-3.0652,-3.0495,-3.0501,-3.0505,-3.0508,-3.0936,-3.0943,0,0,0,0,0,0,-3.0478,-3.0481,-3.0599,-3.06,-3.0478,-3.049,-3.049,-3.0526,-3.0517,-3.0509,-3.047,-3.0457,-3.0494,-3.0501,-3.0509,-3.0715,-3.0502,-3.0509,-3.0513,-3.0929,-3.0938,-3.0945,0,0,0,0,0,0,-3.0475,-3.049,-3.0598,-3.0537,-3.0548,-3.05,-3.0542,-3.053,-3.055,-3.0515,-3.0505,-3.0501,-3.0489,-3.0499,-3.0615,-3.0713,-3.0512,-3.0519,-3.0921,-3.0932,-3.0941,-3.1128,0,0,0,0,0,0,-3.0471,-3.049,-3.0556,-3.054,-3.0552,-3.0703,-3.0548,-3.0535,-3.0562,-3.0545,-3.0541,-3.0534,-3.0485,-3.0605,-3.0622,-3.072,-3.0524,-3.0912,-3.0926,-3.0938,-3.1113,-3.1144,-3.117,0,0,0,0,0,-3.0466,-3.061,-3.056,-3.0576,-3.0633,-3.0709,-3.0716,-3.0654,-3.057,-3.0637,-3.0614,-3.0534,-3.0699,-3.0618,-3.0636,-3.0737,-3.0905,-3.0922,-3.0937,-3.11,-3.1138,-3.117,0,0,0,0,0,0,-3.0643,-3.0607,-3.0551,-3.0694,-3.0705,-3.0682,-3.0764,-3.0696,-3.0734,-3.0717,-3.064,-3.0641,-3.0769,-3.0764,-3.0674,-3.0907,-3.0788,-3.0808,-3.0906,-3.0941,-3.0969,-3.0969,-3.053,0,0,0,0,0,-3.0697,-3.076,-3.0726,-3.0856,-3.0864,-3.0813,-3.0844,-3.0795,-3.0805,-3.0809,-3.0795,-3.0809,-3.0863,-3.0902,-3.095,-3.111,-3.1108,-3.1189,-3.1218,-3.1241,-3.1261,-3.1344,-3.138,-3.0998,-3.0998,-3.0997,0,0,-3.0813,-3.0801,-3.0846,-3.0891,-3.0894,-3.0962,-3.0819,-3.0897,-3.0947,-3.0822,-3.0929,-3.0919,-3.093,-3.1068,-3.1128,-3.1068,-3.1365,-3.1262,-3.1281,-3.1287,-3.1364,-3.1401,-3.1433,-3.1008,-3.1007,-3.1005,0,0,-3.1059,-3.1056,-3.1162,-3.1167,-3.1172,-3.1137,-3.1163,-3.1149,-3.1136,-3.1242,-3.1149,-3.1208,-3.1304,-3.1315,-3.1333,-3.1579,-3.1507,-3.1597,-3.1748,-3.183,-3.186,-3.1887,-3.1975,-3.2007,-3.1616,-3.1616,-3.1616,0,-3.1203,-3.13,-3.1227,-3.131,-3.1333,-3.1218,-3.1327,-3.1335,-3.1358,-3.1377,-3.1307,-3.1424,-3.1423,-3.1562,-3.1621,-3.164,-3.1667,-3.1598,-3.1861,-3.1887,-3.1911,-3.1994,-3.2027,-3.1627,-3.1626,-3.1625,-3.1624,0,-3.1476,-3.1545,-3.1631,-3.1651,-3.1683,-3.1779,-3.1721,-3.1762,-3.171,-3.1682,-3.1791,-3.1785,-3.183,-3.1858,-3.181,-3.1991,-3.1953,-3.1874,-3.1753,-3.1959,-3.2036,-3.2067,-3.1643,-3.1639,-3.1635,-3.1633,0,0,-3.1838,-3.1813,-3.1846,-3.1853,-3.1849,-3.1901,-3.1991,-3.2032,-3.2069,-3.2087,-3.2162,-3.2244,-3.2169,-3.219,-3.2141,-3.2213,-3.2408,-3.2125,-3.2124,-3.2178,-3.2607,-3.2668,-3.2706,-3.2359,-3.2365,-3.2369,-3.2607,0,-3.2077,-3.2228,-3.2163,-3.2321,-3.2383,-3.2274,-3.2353,-3.2359,-3.2335,-3.2385,-3.2359,-3.2418,-3.2316,-3.2328,-3.2394,-3.237,-3.2493,-3.2352,-3.243,-3.2433,-3.2432,-3.2746,-3.2811,-3.3035,-3.2636,-3.2641,-3.2645,0,-3.2377,-3.2404,-3.2568,-3.255,-3.2574,-3.2645,-3.2676,-3.2725,-3.273,-3.2707,-3.2729,-3.2662,-3.275,-3.2628,-3.2749,-3.2654,-3.2681,-3.2674,-3.2681,-3.2688,-3.2553,-3.2762,-3.3105,-3.3139,-3.2691,-3.2688,-3.2684,0,-3.2625,-3.2703,-3.281,-3.2819,-3.2801,-3.2854,-3.2849,-3.2846,-3.2874,-3.2902,-3.2919,-3.2958,-3.298,-3.3012,-3.2958,-3.2873,-3.3086,-3.2959,-3.3071,-3.3073,-3.3123,-3.3121,-3.3477,-3.3139,-3.3138,-3.3138,-3.3137,0,-3.29,-3.3005,-3.292,-3.2987,-3.3101,-3.3025,-3.314,-3.3123,-3.3122,-3.3184,-3.3092,-3.3152,-3.3076,-3.313,-3.3088,-3.3194,-3.3205,-3.319,-3.3178,-3.3199,-3.3201,-3.3218,-3.3201,-3.3146,-3.3145,-3.3143,-3.3141,0,-3.3198,-3.3145,-3.3255,-3.3227,-3.3222,-3.3307,-3.3284,-3.3345,-3.3312,-3.3392,-3.3406,-3.3357,-3.3415,-3.3362,-3.3419,-3.3391,-3.3533,-3.3498,-3.3531,-3.3521,-3.3636,-3.3627,-3.4016,-3.4063,-3.3695,-3.3698,-3.3701,0,-3.3378,-3.3455,-3.3434,-3.3467,-3.3467,-3.3523,-3.355,-3.3478,-3.351,-3.3519,-3.3579,-3.3628,-3.3664,-3.3762,-3.3732,-3.3774,-3.374,-3.3874,-3.3747,-3.3765,-3.3743,-3.374,-3.3747,-3.3901,-3.3905,-3.3909,-3.3911,0,-3.3703,-3.3672,-3.3713,-3.3745,-3.3779,-3.3801,-3.3816,-3.3849,-3.3775,-3.3816,-3.3872,-3.3899,-3.3954,-3.4005,-3.4037,-3.4033,-3.3962,-3.3951,-3.3979,-3.4003,-3.4019,-3.4012,-3.3603,-3.3943,-3.394,-3.3938,-3.3936,-3.3935,-3.3948,-3.4011,-3.4005,-3.4053,-3.4056,-3.4072,-3.4127,-3.4099,-3.4144,-3.4182,-3.4136,-3.4206,-3.4207,-3.4242,-3.4246,-3.43,-3.4245,-3.4286,-3.4296,-3.4308,-3.4325,-3.4009,-3.4306,-3.4305,-3.4304,-3.4303,-3.4302,0,-3.4269,-3.4258,-3.4303,-3.4325,-3.4364,-3.4288,-3.43,-3.4338,-3.4399,-3.4404,-3.444,-3.4504,-3.4552,-3.4524,-3.4565,-3.4614,-3.4582,-3.4627,-3.4624,-3.4624,-3.4372,-3.4343,-3.4652,-3.4652,-3.4652,-3.4652,-3.4652,-3.4652,-3.444,-3.4542,-3.451,-3.4613,-3.4602,-3.4667,-3.468,-3.4694,-3.4698,-3.4773,-3.4811,-3.4791,-3.4783,-3.4823,-3.4863,-3.4854,-3.4874,-3.4932,-3.4911,-3.4676,-3.4642,-3.4609,-3.4582,-3.4936,-3.4937,-3.5159,-3.5161,-3.5162]},{"header":{"parameterUnit":"m.s-1","parameterCategory":1,"la1":30.2991,"la2":30.254,"lo1":-89.0895,"lo2":-89.0444,"dy":0.0017,"dx":0.0017,"nx":28,"ny":28,"refTime":"2025-08-08T09:00:00:Z","depth":0,"parameterNumber":3,"parameterNumberName":"V-component_of_WINDS"},"data":[0,0,0,0,0,0,0,0,0,0,0,0,0,0,0,0,0,0,0,0,0,0,0,0,0,0,0,0,0,0,0,0,0,0,0,0,0,0,0,0,0,0,0,0,0,0,0,0,0,0,0,0,0,0,0,0,0,0,-2.0247,-2.0247,0,-2.023,-2.023,-2.023,-2.0225,-2.0225,-2.0225,-2.0226,-2.0206,-2.0206,-2.0205,0,0,0,0,0,0,0,0,0,0,0,0,0,-2.0272,-2.0271,-2.0247,-2.0247,-2.0246,-2.023,-2.023,-2.023,-2.0225,-2.0225,-2.0225,-2.0226,-2.0207,-2.0206,-2.0205,0,0,0,0,0,0,0,0,0,0,0,0,0,-2.0259,-2.0271,-2.0247,-2.0242,-2.0242,-2.023,-2.023,-2.023,-2.0225,-2.0225,-2.0226,-2.0226,-2.0207,-2.0206,-2.0205,-2.0196,0,0,-2.0202,-2.0202,0,0,0,0,0,0,0,0,-2.0259,-2.0258,-2.0243,-2.0243,-2.0242,-2.023,-2.0232,-2.0218,-2.0225,-2.0231,-2.0226,-2.0226,-2.0214,-2.0212,-2.0209,-2.0195,-2.0195,-2.0202,-2.0202,-2.0201,-2.0201,0,0,0,0,0,0,0,-2.026,-2.0258,-2.024,-2.0243,-2.0242,-2.024,-2.0238,-2.0229,-2.0222,-2.0231,-2.0231,-2.0229,-2.0214,-2.021,-2.0208,-2.0194,-2.0202,-2.0201,-2.0201,-2.02,-2.017,-2.017,0,0,0,0,0,0,-2.0262,-2.0259,-2.0241,-2.024,-2.0251,-2.0239,-2.0238,-2.0234,-2.0222,-2.022,-2.0229,-2.0229,-2.0211,-2.021,-2.0208,-2.0195,-2.0201,-2.02,-2.02,-2.0171,-2.017,-2.017,0,0,0,0,0,0,-2.0263,-2.0261,-2.0241,-2.0249,-2.0247,-2.0239,-2.0234,-2.0233,-2.0229,-2.022,-2.0219,-2.0226,-2.0211,-2.0209,-2.0199,-2.0195,-2.02,-2.0199,-2.0171,-2.0171,-2.017,-2.0172,0,0,0,0,0,0,-2.0264,-2.0261,-2.0258,-2.0249,-2.0246,-2.0234,-2.0234,-2.0233,-2.0228,-2.0228,-2.0218,-2.0216,-2.0211,-2.02,-2.0198,-2.0194,-2.0198,-2.0171,-2.0171,-2.017,-2.0172,-2.0171,-2.0171,0,0,0,0,0,-2.0265,-2.0259,-2.0258,-2.0256,-2.0243,-2.0234,-2.0232,-2.0227,-2.0228,-2.0224,-2.0218,-2.0216,-2.0196,-2.0199,-2.0197,-2.0192,-2.0172,-2.0171,-2.017,-2.0172,-2.0171,-2.0171,0,0,0,0,0,0,-2.0268,-2.0258,-2.0257,-2.0249,-2.0242,-2.0233,-2.0229,-2.0227,-2.0219,-2.0219,-2.0213,-2.021,-2.02,-2.0195,-2.0199,-2.0182,-2.0183,-2.0182,-2.0186,-2.0185,-2.0184,-2.0186,-2.0198,0,0,0,0,0,-2.0268,-2.0262,-2.0253,-2.0247,-2.0243,-2.0237,-2.0232,-2.0229,-2.0222,-2.0219,-2.0212,-2.0204,-2.0195,-2.019,-2.0182,-2.0171,-2.0168,-2.0166,-2.0166,-2.0166,-2.0164,-2.0157,-2.0155,-2.0168,-2.0168,-2.0168,0,0,-2.0267,-2.0261,-2.0258,-2.0247,-2.0242,-2.0234,-2.0234,-2.0227,-2.0221,-2.0217,-2.0207,-2.0202,-2.0192,-2.0181,-2.0176,-2.0177,-2.016,-2.0165,-2.0165,-2.0164,-2.0156,-2.0155,-2.0154,-2.0168,-2.0168,-2.0168,0,0,-2.0263,-2.0258,-2.0252,-2.0246,-2.0237,-2.0233,-2.0231,-2.0222,-2.0218,-2.0208,-2.0204,-2.0197,-2.0183,-2.0176,-2.017,-2.0161,-2.0158,-2.0159,-2.0156,-2.0148,-2.0147,-2.0146,-2.0142,-2.014,-2.0158,-2.0158,-2.0158,0,-2.0263,-2.0253,-2.0248,-2.0241,-2.0236,-2.0232,-2.0224,-2.0219,-2.0208,-2.0204,-2.0205,-2.0186,-2.0179,-2.0166,-2.0164,-2.016,-2.0157,-2.016,-2.0148,-2.0147,-2.0146,-2.0141,-2.014,-2.0158,-2.0158,-2.0158,-2.0158,0,-2.0253,-2.0246,-2.0241,-2.0231,-2.0225,-2.0218,-2.0211,-2.0206,-2.0203,-2.0197,-2.0186,-2.0178,-2.0167,-2.0164,-2.0161,-2.0149,-2.015,-2.0149,-2.0151,-2.0145,-2.014,-2.0139,-2.0158,-2.0158,-2.0158,-2.0158,0,0,-2.0251,-2.0237,-2.0236,-2.023,-2.022,-2.0214,-2.0205,-2.0195,-2.019,-2.0182,-2.0174,-2.0162,-2.0161,-2.0154,-2.015,-2.0144,-2.0135,-2.0144,-2.0143,-2.0141,-2.012,-2.012,-2.0118,-2.0133,-2.0133,-2.0133,-2.0121,0,-2.0244,-2.023,-2.0225,-2.0213,-2.0205,-2.0201,-2.0193,-2.0185,-2.018,-2.0172,-2.0165,-2.0156,-2.0156,-2.0152,-2.0145,-2.0138,-2.0131,-2.0139,-2.0124,-2.0124,-2.0126,-2.0116,-2.0116,-2.0105,-2.0119,-2.0119,-2.0119,0,-2.0235,-2.0227,-2.0214,-2.0204,-2.02,-2.0194,-2.0183,-2.0176,-2.0166,-2.0162,-2.0154,-2.015,-2.014,-2.0142,-2.0126,-2.0132,-2.0125,-2.012,-2.012,-2.0118,-2.012,-2.0113,-2.0102,-2.01,-2.0116,-2.0116,-2.0116,0,-2.0233,-2.022,-2.021,-2.0205,-2.0193,-2.0188,-2.0182,-2.0173,-2.0167,-2.0157,-2.0152,-2.0142,-2.0135,-2.0126,-2.0119,-2.0121,-2.0103,-2.0105,-2.0098,-2.0098,-2.0094,-2.0094,-2.0081,-2.0092,-2.0092,-2.0092,-2.0092,0,-2.0226,-2.0219,-2.0209,-2.0203,-2.0193,-2.0186,-2.0177,-2.017,-2.0162,-2.0153,-2.0148,-2.014,-2.0131,-2.0121,-2.0115,-2.0102,-2.0099,-2.0095,-2.0093,-2.0095,-2.0095,-2.009,-2.009,-2.0091,-2.0091,-2.0091,-2.0091,0,-2.0223,-2.0217,-2.0205,-2.0194,-2.0191,-2.0184,-2.0174,-2.0167,-2.0161,-2.015,-2.0147,-2.0136,-2.0124,-2.0116,-2.01,-2.0096,-2.0081,-2.008,-2.0085,-2.0084,-2.0077,-2.0077,-2.0059,-2.0056,-2.007,-2.007,-2.007,0,-2.0219,-2.0213,-2.0201,-2.0195,-2.0189,-2.018,-2.0174,-2.0166,-2.0159,-2.0147,-2.0141,-2.0128,-2.0118,-2.0099,-2.0089,-2.0076,-2.0074,-2.0069,-2.0072,-2.0074,-2.0073,-2.0073,-2.0071,-2.0068,-2.0068,-2.0068,-2.0068,0,-2.0212,-2.0209,-2.02,-2.0189,-2.0182,-2.0173,-2.0164,-2.0159,-2.015,-2.0142,-2.013,-2.0122,-2.0105,-2.0092,-2.0079,-2.0071,-2.0067,-2.0067,-2.0064,-2.0066,-2.0068,-2.0065,-2.0082,-2.0067,-2.0067,-2.0067,-2.0067,-2.0067,-2.0208,-2.0201,-2.0191,-2.0181,-2.0173,-2.0165,-2.0157,-2.015,-2.014,-2.0126,-2.0122,-2.0109,-2.0097,-2.0078,-2.007,-2.0059,-2.0059,-2.0056,-2.0055,-2.0054,-2.0053,-2.007,-2.0056,-2.0056,-2.0056,-2.0056,-2.0056,0,-2.0199,-2.0192,-2.0183,-2.0171,-2.0162,-2.016,-2.0149,-2.0141,-2.013,-2.012,-2.011,-2.0094,-2.0081,-2.007,-2.0056,-2.0049,-2.0046,-2.0045,-2.0045,-2.0043,-2.0054,-2.0057,-2.0047,-2.0047,-2.0047,-2.0047,-2.0047,-2.0047,-2.0194,-2.0183,-2.0178,-2.0162,-2.0154,-2.0142,-2.0136,-2.0127,-2.0119,-2.0102,-2.0091,-2.0084,-2.0073,-2.0058,-2.0045,-2.0042,-2.0036,-2.0035,-2.0031,-2.0042,-2.0043,-2.0044,-2.0046,-2.0034,-2.0034,-2.0021,-2.0021,-2.0021]}]]